Location: Alexander
(41.3564°N, 81.5960°W)
Time: 08:37:54
(UTC+00:00)

Cosmos 158 Rocket - Pass Details

Date: 24 January 2021
Orbit: 698 x 794 km, 74.0° (Epoch: 02 March)

Event Time Altitude Azimuth Distance (km) Brightness Sun altitude
Rises 23:42:50 0° 339° (NNW) 3,277 7.4 -13.2°
Reaches altitude 10° 23:45:13 10° 338° (NNW) 2,354 6.6 -13.6°
Maximum altitude 23:50:35 78° 253° (WSW) 814 4.2 -14.6°
Drops below altitude 10° 23:55:57 10° 167° (SSE) 2,354 6.5 -15.6°
Sets 23:58:20 0° 166° (SSE) 3,276 7.3 -16.0°
